TimeADT,TemperatureF,Dew PointF,Humidity,Sea Level PressureIn,VisibilityMPH,Wind Direction,Wind SpeedMPH,Gust SpeedMPH,PrecipitationIn,Events,Conditions,WindDirDegrees,DateUTC
12:00 AM,46.4,46.4,100,30.07,15.0,North,4.6,-,N/A,,Mostly Cloudy,10,2013-05-22 03:00:00
12:50 AM,44.6,44.6,100,30.06,15.0,NNE,5.8,-,N/A,,Mostly Cloudy,20,2013-05-22 03:50:00
1:00 AM,42.8,42.8,100,30.07,15.0,NNE,5.8,-,N/A,,Mostly Cloudy,30,2013-05-22 04:00:00
1:11 AM,42.8,42.8,100,30.07,2.0,NNE,6.9,-,N/A,,Mostly Cloudy,20,2013-05-22 04:11:00
2:00 AM,42.8,42.8,100,30.07,15.0,ENE,3.5,-,N/A,,Mostly Cloudy,70,2013-05-22 05:00:00
3:00 AM,45,45,98,30.07,15,ENE,4.6,,,,Overcast,60,2013-05-22 06:00:00
3:00 AM,44.6,44.6,100,30.07,15.0,ENE,4.6,-,N/A,,Overcast,60,2013-05-22 06:00:00
3:18 AM,44.6,44.6,100,30.07,15.0,ENE,3.5,-,N/A,,Overcast,60,2013-05-22 06:18:00
4:00 AM,46.4,44.6,93,30.06,15.0,East,4.6,-,N/A,,Overcast,90,2013-05-22 07:00:00
4:49 AM,46.4,44.6,93,30.07,10.0,East,4.6,-,N/A,,Light Drizzle,90,2013-05-22 07:49:00
5:00 AM,44.6,44.6,100,30.07,10.0,East,5.8,-,N/A,,Light Drizzle,80,2013-05-22 08:00:00
5:36 AM,44.6,44.6,100,30.08,5.0,East,3.5,-,N/A,,Light Drizzle,100,2013-05-22 08:36:00
6:00 AM,46.4,46.4,100,30.08,3.0,East,3.5,-,N/A,,Light Drizzle,90,2013-05-22 09:00:00
6:46 AM,46.4,46.4,100,30.10,1.5,ENE,8.1,-,N/A,,Light Drizzle,60,2013-05-22 09:46:00
7:00 AM,46.4,46.4,100,30.11,2.0,ENE,5.8,-,N/A,,Light Drizzle,70,2013-05-22 10:00:00
8:00 AM,46.4,46.4,100,30.12,2.5,East,4.6,-,N/A,,Overcast,100,2013-05-22 11:00:00
9:00 AM,47,47,100,30.12,5,East,3.5,,,,Mist,100,2013-05-22 12:00:00
9:00 AM,48.2,48.2,100,30.12,5.0,East,3.5,-,N/A,,Overcast,80,2013-05-22 12:00:00
10:00 AM,48.2,48.2,100,30.13,6.0,South,5.8,-,N/A,,Overcast,170,2013-05-22 13:00:00
11:00 AM,50.0,48.2,94,30.12,15.0,SSE,4.6,-,N/A,,Overcast,160,2013-05-22 14:00:00
11:34 AM,50.0,48.2,94,30.12,15.0,SSE,4.6,-,N/A,,Overcast,160,2013-05-22 14:34:00
12:00 PM,50.0,48.2,94,30.12,15.0,SSE,5.8,-,N/A,,Overcast,160,2013-05-22 15:00:00
12:42 PM,51.8,50.0,94,30.12,15.0,South,5.8,-,N/A,,Overcast,170,2013-05-22 15:42:00
1:00 PM,51.8,50.0,94,30.12,15.0,SSE,3.5,-,N/A,,Overcast,160,2013-05-22 16:00:00
1:25 PM,53.6,50.0,88,30.12,15.0,SSE,6.9,-,N/A,,Overcast,150,2013-05-22 16:25:00
2:00 PM,53.6,48.2,82,30.12,15.0,South,5.8,-,N/A,,Overcast,170,2013-05-22 17:00:00
3:00 PM,55,49,76,30.12,15,SSW,5.8,,,,Overcast,200,2013-05-22 18:00:00
3:00 PM,55.4,50.0,82,30.12,15.0,South,5.8,-,N/A,,Overcast,190,2013-05-22 18:00:00
4:00 PM,55.4,49.6,81,30.12,15.0,South,8.1,-,N/A,,Clear,180,2013-05-22 19:00:00
5:00 PM,55.4,48.2,77,30.11,15.0,South,6.9,-,N/A,,Overcast,190,2013-05-22 20:00:00
6:00 PM,55.4,46.4,72,30.09,15.0,SSE,5.8,-,N/A,,Mostly Cloudy,160,2013-05-22 21:00:00
7:00 PM,55.4,46.4,72,30.09,15.0,SSE,5.8,-,N/A,,Mostly Cloudy,160,2013-05-22 22:00:00
8:00 PM,55.4,46.4,72,30.10,15.0,South,4.6,-,N/A,,Mostly Cloudy,180,2013-05-22 23:00:00
9:00 PM,54,47,70,30.11,15,SSE,4.6,,,,Overcast,150,2013-05-23 00:00:00
9:00 PM,53.6,46.4,77,30.11,15.0,SSE,4.6,-,N/A,,Overcast,160,2013-05-23 00:00:00
10:00 PM,51.8,48.2,88,30.11,15.0,ESE,5.8,-,N/A,,Overcast,120,2013-05-23 01:00:00
11:00 PM,50.0,48.2,94,30.10,15.0,ESE,8.1,-,N/A,,Overcast,110,2013-05-23 02:00:00